{"data":{"norad_id":54752,"intl_designator":"2022-172A","name":"SHIYAN-21 (SY-21)","alt_names":[],"object_type":"PAYLOAD","status":"ACTIVE","operator":null,"country":"PRC","launch_date":"2022-12-16","launch_site_code":"XICLF","launch_vehicle":null,"mission":null,"orbit_class":"UNKNOWN","rcs_meters":null,"size_class":null,"mass_kg":null,"dimensions":null,"purposes":[],"wikipedia_slug":null,"has_3d_model":false,"image_url":null,"decayed_at":null,"tle_current":{"epoch":"2026-09-21T23:32:35.110752Z","epoch_age_seconds":34247,"freshness":"FRESH","line1":"1 54752U 22172A   26264.98096193  .00005726  00000+0  20653-3 0  9990","line2":"2 54752  35.9895 186.4138 0025279   9.4363 350.6842 15.27783643210495","mean_motion":15.27783643,"eccentricity":0.0025279,"inclination_deg":35.9895,"raan_deg":186.4138,"arg_perigee_deg":9.4363,"mean_anomaly_deg":350.6842,"bstar":0.00020653,"rev_number":21049,"period_min":94.254183607593,"perigee_km":465.09653233187,"apogee_km":499.78223441092,"semimajor_km":6860.5763833714,"source":"CELESTRAK","updated_at":"2026-09-22T09:00:25.189695Z"}}}